Lorain / Elyria, OH

9:52 PM EDT on September 21, 2017 (GMT -0400)
Lorain County Regional

Weather History for KLPR - September, 2013

Change the Weather History Date:

Saturday, September 7, 2013

  Actual Average (KCLE) Record (KCLE)
Temperature  
Mean Temperature 67 °F -  
Max Temperature 82 °F 76 °F 94 °F (1939)
Min Temperature 52 °F 56 °F 43 °F (1962)
Cooling Degree Days 2    
Growing Degree Days 17 (Base 50)    
Moisture  
Dew Point 58 °F    
Average Humidity 72    
Maximum Humidity 87    
Minimum Humidity 50    
Precipitation  
Precipitation 0.03 in - - ()
Sea Level Pressure  
Sea Level Pressure 30.02 in    
Wind  
Wind Speed 4 mph (SW)    
Max Wind Speed 9 mph    
Max Gust Speed -    
Visibility 9 miles    
Events Rain    
Averages and records for this station are not official NWS values.
T = Trace of Precipitation, MM = Missing Value Source: NWS Daily Summary

Daily Weather History Graph

Daily Weather History Graph

Search for Another Location

Airport or City:

Trip Planner

Search our weather history database for the weather conditions in past years. The results will help you decide how hot, cold, wet, or windy it might be!

Date:

Astronomy

Sep. 07, 2013 Rise Set
Actual Time 7:01 AM EDT 7:51 PM EDT
Civil Twilight 6:33 AM EDT 8:19 PM EDT
Nautical Twilight 5:59 AM EDT 8:52 PM EDT
Astronomical Twilight 5:25 AM EDT 9:26 PM EDT
Moon 9:16 AM EDT (9/7) 8:46 PM EDT (9/7)
Length of Visible Light 13h 45m
Length of Day
12h 49m
Waxing Crescent, 5% of the Moon is Illuminated
Sep 7
Waxing Crescent
Sep 12
First Quarter
Sep 19
Full
Sep 26
Last Quarter
Oct 4
New

Hourly Weather History & Observations

Time (EDT) Temp. Heat Index Dew Point Humidity Pressure Visibility Wind Dir Wind Speed Gust Speed Precip Events Conditions
12:53 AM 54.0 °F - 50.0 °F 86% 30.11 in 10.0 mi South 4.6 mph - N/A   Clear
1:53 AM 55.0 °F - 51.1 °F 86% 30.11 in 10.0 mi Calm Calm - N/A   Clear
2:53 AM 55.9 °F - 51.1 °F 84% 30.10 in 10.0 mi SW 3.5 mph - N/A   Clear
3:53 AM 54.0 °F - 48.9 °F 83% 30.10 in 10.0 mi South 3.5 mph - N/A   Clear
4:53 AM 52.0 °F - 48.0 °F 86% 30.09 in 10.0 mi SW 3.5 mph - N/A   Clear
5:53 AM 52.0 °F - 48.0 °F 86% 30.09 in 10.0 mi South 3.5 mph - N/A   Clear
6:53 AM 52.0 °F - 48.0 °F 86% 30.09 in 10.0 mi Calm Calm - 0.01 in   Clear
7:53 AM 55.0 °F - 50.0 °F 83% 30.09 in 10.0 mi SW 4.6 mph - N/A   Clear
8:53 AM 60.1 °F - 51.1 °F 72% 30.07 in 10.0 mi SW 5.8 mph - N/A   Clear
9:53 AM 69.1 °F - 52.0 °F 54% 30.06 in 10.0 mi WSW 8.1 mph - N/A   Mostly Cloudy
10:53 AM 73.0 °F - 54.0 °F 51% 30.06 in 10.0 mi SW 9.2 mph - N/A   Mostly Cloudy
11:53 AM 75.9 °F - 55.9 °F 50% 30.04 in 10.0 mi West 8.1 mph - N/A   Mostly Cloudy
12:53 PM 78.1 °F - 59.0 °F 52% 30.03 in 10.0 mi WSW 6.9 mph - N/A   Mostly Cloudy
1:53 PM 79.0 °F - 62.1 °F 56% 30.02 in 10.0 mi West 5.8 mph - N/A   Mostly Cloudy
2:53 PM 82.0 °F 83.4 °F 64.0 °F 54% 29.99 in 10.0 mi West 5.8 mph - N/A   Mostly Cloudy
3:53 PM 81.0 °F 82.7 °F 64.9 °F 58% 29.97 in 10.0 mi West 6.9 mph - 0.00 in   Partly Cloudy
4:53 PM 81.0 °F 82.2 °F 63.0 °F 54% 29.94 in 10.0 mi WSW 6.9 mph - N/A   Scattered Clouds
5:53 PM 81.0 °F 82.5 °F 64.0 °F 56% 29.95 in 10.0 mi West 5.8 mph - N/A   Partly Cloudy
6:53 PM 77.0 °F - 66.0 °F 69% 29.95 in 8.0 mi West 3.5 mph - 0.00 in Rain Light Rain
7:53 PM 73.0 °F - 68.0 °F 84% 29.96 in 6.0 mi WNW 3.5 mph - 0.02 in Rain Light Rain
8:53 PM 71.1 °F - 66.9 °F 87% 29.95 in 4.0 mi Calm Calm - 0.00 in   Mostly Cloudy
9:53 PM 71.1 °F - 66.9 °F 87% 29.94 in 5.0 mi SSW 4.6 mph - 0.00 in   Overcast
10:53 PM 72.0 °F - 66.0 °F 81% 29.94 in 6.0 mi SSW 3.5 mph - N/A   Haze
11:53 PM 71.1 °F - 66.0 °F 84% 29.93 in 6.0 mi Calm Calm - 0.00 in   Haze